Terug naar catalogus

STARLINK-2413

ActiefCommunicatieVLEO
NORAD 47827·PAYLOAD·🇺🇸 United States

Gelanceerd Mar 11, 2021 vanaf Cape Canaveral Space Force Station

Loading…

Volgende Passages (komende 24 uur)

TLE

VersSource: CelesTrak SupGP

Epoch: Sep 15, 2026, 02:34 UTC

1 47827C 21018AS  26258.10743056 -.00021265  00000+0 -68391-3 0  2584
2 47827  53.1584  81.0878 0001205  72.1484 249.5350 15.31708538    12

Volg STARLINK-2413 in realtime met AllMySat

Download on the App Store